CLICK-A

Last updated on Thu Mar 30 2023 00:02:08 GMT+0000 (Coordinated Universal Time)

1 53769U 98067UG 23088.53149701 .03501531 12298-4 33788-3 0 9997 2 53769 51.6284 331.1478 0010053 246.1962 113.8010 16.37412574 32104

Satellite not in orbit